Starlink 32527

operational
NORAD ID: 62319 Int'l Des: 2024-239 Owner: SPXS Country: US Constellation: starlink
LEOCIRCULAR

关于 Starlink 32527

正在加载描述...

实时位置

正在加载3D地球...

即将过境

高度历史

Altitude vs Time

uPlot chart will show altitude changes over time

两行轨道根数

1 62319U 24239U 25261.02640975 .00024157 00000-0 61173-3 0 9990
2 62319 53.1596 264.8955 0001163 93.2204 266.8934 15.39632832 43100
Epoch: Sep 18, 2025 • Age: 11 hours

当前状态

高度 458.3 km
速度 7.64 km/s
星下点 -33.54°S, 65.3°E
发射日期 Dec 13, 2024
运行时间 0.7 years
类型 internet

技术详情

分类 Payload
质量 730.00 kg
干质量 700.00 kg
总质量 730.00 kg
长度 0.30 m
直径 4.10 m
跨度 29.00 m
形状 Box + pan
制造商 SPXS
平台类型 Starlink V2M
阶段状态 In Orbit
所有者/国家 SPXS/US

大型星座

Loading constellations...